Tracking 19709 objects as of 17-Jun-2019
HD Live streaming from Space Station
objects crossing your sky now

SL-8 R/B

Track SL-8 R/B now!
10-day predictions


NORAD ID: 12836
Int'l Code: 1981-091B
Perigee: 967.6 km
Apogee: 999.6 km
Inclination: 82.9 °
Period: 104.6 minutes
Semi major axis: 7354 km
RCS: 4.3972 m2 (large)
Launch date: September 18, 1981
Source: Commonwealth of Independent States (former USSR) (CIS)
Launch site: PLESETSK MISSILE AND SPACE COMPLEX (PKMTR)

Note: This is a ROCKET BODY
aabbcc
Your satellite tracking list
Your tracking list is empty




NASA's NSSDC Master Catalog

Two Line Element Set (TLE):
1 12836U 81091B   19168.22414196  .00000034  00000-0  19584-4 0  9991
2 12836  82.9192 254.6298 0021767 313.6612  74.8472 13.76456726895779
Source of the keplerian elements: AFSPC